Location: Martley
(52.2333°N, 2.3667°W)
Time: 04:18:27
(UTC+00:00)

USA 234 - Pass Details

Date: 11 December 2019
Orbit: 1099 x 1108 km, 123.0° (Epoch: 16 January)

Event Time Altitude Azimuth Distance (km) Brightness Sun altitude
Rises 04:01:25 0° 59° (ENE) 3,925 7.0 -36.3°
Reaches altitude 10° 04:04:08 10° 68° (ENE) 2,966 6.2 -35.9°
Maximum altitude 04:10:08 38° 134° (SE) 1,633 4.3 -35.0°
Enters shadow 04:11:24 35° 158° (SSE) 1,714 4.3 -34.8°
